******** Week 360 almanac for PRN-1 ******** ID: 1 Health: 0 Eccentricity: 0.001574516296 Time of Applicability(s): 61440 Orbital Inclination(rad): 0.9583389177 Rate of Right Ascen(r/s): -7.760323248e-09 SQRT(A) (m 1/2): 5153.581543 Right Ascen at Week(rad): 3.138135581 Argument of Perigee(rad): 0.07586201622 Mean Anom(rad): 0.6768918679 Af0(s): 0.0002562492676 Af1(s/s): -7.275958e-12 week: 360 ******** Week 360 almanac for PRN-2 ******** ID: 2 Health: 0 Eccentricity: 0.01691436768 Time of Applicability(s): 61440 Orbital Inclination(rad): 0.9636119767 Rate of Right Ascen(r/s): -7.588887536e-09 SQRT(A) (m 1/2): 5153.552246 Right Ascen at Week(rad): 2.975688288 Argument of Perigee(rad): -0.8133165392 Mean Anom(rad): 2.130936378 Af0(s): 3.843739014e-05 Af1(s/s): 7.275958e-12 week: 360 ******** Week 360 almanac for PRN-3 ******** ID: 3 Health: 0 Eccentricity: 0.006475448608 Time of Applicability(s): 61440 Orbital Inclination(rad): 0.9931710674 Rate of Right Ascen(r/s): -7.920329913e-09 SQRT(A) (m 1/2): 5153.57959 Right Ascen at Week(rad): -2.158293742 Argument of Perigee(rad): 1.202048468 Mean Anom(rad): -1.463946476 Af0(s): 0.0004378847778 Af1(s/s): -1.091394e-11 week: 360 ******** Week 360 almanac for PRN-4 ******** ID: 4 Health: 0 Eccentricity: 0.003715991974 Time of Applicability(s): 61440 Orbital Inclination(rad): 0.9704729455 Rate of Right Ascen(r/s): -8.034620388e-09 SQRT(A) (m 1/2): 5153.685059 Right Ascen at Week(rad): -1.087335842 Argument of Perigee(rad): -2.880295356 Mean Anom(rad): 1.520726985 Af0(s): 3.69300415e-05 Af1(s/s): 3.637979e-12 week: 360 ******** Week 360 almanac for PRN-5 ******** ID: 5 Health: 0 Eccentricity: 0.005389213562 Time of Applicability(s): 61440 Orbital Inclination(rad): 0.9797547276 Rate of Right Ascen(r/s): -8.034620388e-09 SQRT(A) (m 1/2): 5153.653809 Right Ascen at Week(rad): -2.218030609 Argument of Perigee(rad): 1.416898282 Mean Anom(rad): 2.18299323 Af0(s): -0.0001816355103 Af1(s/s): 0 week: 360 ******** Week 360 almanac for PRN-6 ******** ID: 6 Health: 0 Eccentricity: 0.003864765167 Time of Applicability(s): 61440 Orbital Inclination(rad): 0.9872268919 Rate of Right Ascen(r/s): -7.440309919e-09 SQRT(A) (m 1/2): 5153.597656 Right Ascen at Week(rad): 3.088651218 Argument of Perigee(rad): -0.5701240336 Mean Anom(rad): -0.1405258978 Af0(s): -0.0004838589111 Af1(s/s): 0 week: 360 ******** Week 360 almanac for PRN-7 ******** ID: 7 Health: 0 Eccentricity: 0.02046537399 Time of Applicability(s): 61440 Orbital Inclination(rad): 0.9514060436 Rate of Right Ascen(r/s): -7.714607058e-09 SQRT(A) (m 1/2): 5153.581055 Right Ascen at Week(rad): -0.07877268484 Argument of Perigee(rad): -1.992421958 Mean Anom(rad): -1.008603978 Af0(s): -0.0001228489136 Af1(s/s): -3.637979e-12 week: 360 ******** Week 360 almanac for PRN-8 ******** ID: 8 Health: 0 Eccentricity: 0.01156949997 Time of Applicability(s): 61440 Orbital Inclination(rad): 0.9432387944 Rate of Right Ascen(r/s): -8.217485148e-09 SQRT(A) (m 1/2): 5153.623047 Right Ascen at Week(rad): 1.968662857 Argument of Perigee(rad): 0.5235877903 Mean Anom(rad): 1.819813166 Af0(s): 0.0003828665527 Af1(s/s): -7.275958e-12 week: 360 ******** Week 360 almanac for PRN-9 ******** ID: 9 Health: 0 Eccentricity: 0.003355503082 Time of Applicability(s): 61440 Orbital Inclination(rad): 0.9646126595 Rate of Right Ascen(r/s): -8.137481816e-09 SQRT(A) (m 1/2): 5153.728027 Right Ascen at Week(rad): -1.151590762 Argument of Perigee(rad): 2.064919777 Mean Anom(rad): 2.417191949 Af0(s): 0.000607461499 Af1(s/s): 0 week: 360 ******** Week 360 almanac for PRN-10 ******** ID: 10 Health: 0 Eccentricity: 0.01094198227 Time of Applicability(s): 61440 Orbital Inclination(rad): 0.9927096748 Rate of Right Ascen(r/s): -7.943188008e-09 SQRT(A) (m 1/2): 5153.601562 Right Ascen at Week(rad): -2.160804437 Argument of Perigee(rad): -2.255139387 Mean Anom(rad): -2.454864734 Af0(s): -0.0004657707275 Af1(s/s): 0 week: 360 ******** Week 360 almanac for PRN-11 ******** ID: 11 Health: 0 Eccentricity: 0.002210140228 Time of Applicability(s): 61440 Orbital Inclination(rad): 0.9640913457 Rate of Right Ascen(r/s): -7.668890868e-09 SQRT(A) (m 1/2): 5153.53125 Right Ascen at Week(rad): 3.107461582 Argument of Perigee(rad): -2.297383405 Mean Anom(rad): 0.9342808113 Af0(s): -0.0003338777222 Af1(s/s): 1.455192e-11 week: 360 ******** Week 360 almanac for PRN-12 ******** ID: 12 Health: 0 Eccentricity: 0.009027481079 Time of Applicability(s): 61440 Orbital Inclination(rad): 0.9589620974 Rate of Right Ascen(r/s): -8.057478483e-09 SQRT(A) (m 1/2): 5153.712402 Right Ascen at Week(rad): 1.038795237 Argument of Perigee(rad): 1.559395584 Mean Anom(rad): -1.66569154 Af0(s): -0.0004800905395 Af1(s/s): 0 week: 360 ******** Week 360 almanac for PRN-13 ******** ID: 13 Health: 0 Eccentricity: 0.01000499725 Time of Applicability(s): 61440 Orbital Inclination(rad): 0.9761714444 Rate of Right Ascen(r/s): -7.931758961e-09 SQRT(A) (m 1/2): 5153.626465 Right Ascen at Week(rad): -0.9764626615 Argument of Perigee(rad): 0.9959613699 Mean Anom(rad): 1.572409704 Af0(s): 0.0005411381592 Af1(s/s): 0 week: 360 ******** Week 360 almanac for PRN-14 ******** ID: 14 Health: 0 Eccentricity: 0.006710529327 Time of Applicability(s): 61440 Orbital Inclination(rad): 0.9423459696 Rate of Right Ascen(r/s): -8.240343243e-09 SQRT(A) (m 1/2): 5153.587891 Right Ascen at Week(rad): 0.9841565339 Argument of Perigee(rad): -2.75043804 Mean Anom(rad): -1.825818761 Af0(s): 0.0005825902466 Af1(s/s): 3.637979e-12 week: 360 ******** Week 360 almanac for PRN-15 ******** ID: 15 Health: 0 Eccentricity: 0.01661968231 Time of Applicability(s): 61440 Orbital Inclination(rad): 0.9424298592 Rate of Right Ascen(r/s): -8.446066098e-09 SQRT(A) (m 1/2): 5153.637207 Right Ascen at Week(rad): -1.295655751 Argument of Perigee(rad): 1.50057626 Mean Anom(rad): 0.8234405877 Af0(s): 0.0003082527954 Af1(s/s): 3.637979e-12 week: 360 ******** Week 360 almanac for PRN-16 ******** ID: 16 Health: 0 Eccentricity: 0.01504611969 Time of Applicability(s): 61440 Orbital Inclination(rad): 0.958087249 Rate of Right Ascen(r/s): -8.103194673e-09 SQRT(A) (m 1/2): 5153.584473 Right Ascen at Week(rad): 1.055777258 Argument of Perigee(rad): 0.9293185932 Mean Anom(rad): 2.846200236 Af0(s): 0.0001718377441 Af1(s/s): 7.275958e-12 week: 360 ******** Week 360 almanac for PRN-17 ******** ID: 17 Health: 0 Eccentricity: 0.01265716553 Time of Applicability(s): 61440 Orbital Inclination(rad): 0.9589860659 Rate of Right Ascen(r/s): -8.000333246e-09 SQRT(A) (m 1/2): 5153.533203 Right Ascen at Week(rad): 2.073369405 Argument of Perigee(rad): -1.122411047 Mean Anom(rad): 1.748384564 Af0(s): -6.029394531e-05 Af1(s/s): -1.091394e-11 week: 360 ******** Week 360 almanac for PRN-18 ******** ID: 18 Health: 0 Eccentricity: 0.005743503571 Time of Applicability(s): 61440 Orbital Inclination(rad): 0.9721866896 Rate of Right Ascen(r/s): -7.600316584e-09 SQRT(A) (m 1/2): 5153.598145 Right Ascen at Week(rad): 3.083637692 Argument of Perigee(rad): -2.863747763 Mean Anom(rad): -0.2370326139 Af0(s): -0.000326340979 Af1(s/s): 1.091394e-11 week: 360 ******** Week 360 almanac for PRN-19 ******** ID: 19 Health: 0 Eccentricity: 0.0111284256 Time of Applicability(s): 61440 Orbital Inclination(rad): 0.9581891149 Rate of Right Ascen(r/s): -7.977475151e-09 SQRT(A) (m 1/2): 5153.662109 Right Ascen at Week(rad): 2.117270242 Argument of Perigee(rad): 2.930434357 Mean Anom(rad): -2.717208406 Af0(s): 0.0005471675537 Af1(s/s): 0 week: 360 ******** Week 360 almanac for PRN-20 ******** ID: 20 Health: 255 Eccentricity: 0.0003175735474 Time of Applicability(s): 61440 Orbital Inclination(rad): 0.9600346856 Rate of Right Ascen(r/s): -8.206056101e-09 SQRT(A) (m 1/2): 5153.643555 Right Ascen at Week(rad): -1.145975778 Argument of Perigee(rad): 1.116251529 Mean Anom(rad): 1.474185498 Af0(s): 1.959553223e-05 Af1(s/s): 2.546585e-11 week: 360 ******** Week 360 almanac for PRN-21 ******** ID: 21 Health: 0 Eccentricity: 0.0007381439209 Time of Applicability(s): 61440 Orbital Inclination(rad): 0.9625873255 Rate of Right Ascen(r/s): -8.263201338e-09 SQRT(A) (m 1/2): 5153.708984 Right Ascen at Week(rad): -2.152009514 Argument of Perigee(rad): -0.3501494658 Mean Anom(rad): -1.936540266 Af0(s): 0.0003195579102 Af1(s/s): 3.637979e-12 week: 360 ******** Week 360 almanac for PRN-22 ******** ID: 22 Health: 0 Eccentricity: 0.01210260391 Time of Applicability(s): 61440 Orbital Inclination(rad): 0.9575299826 Rate of Right Ascen(r/s): -8.103194673e-09 SQRT(A) (m 1/2): 5153.562988 Right Ascen at Week(rad): 1.059127598 Argument of Perigee(rad): -0.9940405234 Mean Anom(rad): 2.396980928 Af0(s): -3.165432129e-05 Af1(s/s): 3.637979e-12 week: 360 ******** Week 360 almanac for PRN-23 ******** ID: 23 Health: 0 Eccentricity: 0.006027698517 Time of Applicability(s): 61440 Orbital Inclination(rad): 0.9877242372 Rate of Right Ascen(r/s): -7.966046103e-09 SQRT(A) (m 1/2): 5153.655273 Right Ascen at Week(rad): -2.192891076 Argument of Perigee(rad): -2.737650872 Mean Anom(rad): -1.37079347 Af0(s): 0.0004891346313 Af1(s/s): 3.637979e-12 week: 360 ******** Week 360 almanac for PRN-24 ******** ID: 24 Health: 0 Eccentricity: 0.01790237427 Time of Applicability(s): 61440 Orbital Inclination(rad): 0.935389127 Rate of Right Ascen(r/s): -7.931758961e-09 SQRT(A) (m 1/2): 5153.603516 Right Ascen at Week(rad): -0.1872018323 Argument of Perigee(rad): 1.134725212 Mean Anom(rad): -0.02629788354 Af0(s): -7.988947754e-05 Af1(s/s): 1.818989e-11 week: 360 ******** Week 360 almanac for PRN-25 ******** ID: 25 Health: 0 Eccentricity: 0.01293849945 Time of Applicability(s): 61440 Orbital Inclination(rad): 0.9473853362 Rate of Right Ascen(r/s): -8.148910863e-09 SQRT(A) (m 1/2): 5153.662109 Right Ascen at Week(rad): 0.9449572577 Argument of Perigee(rad): 1.15711474 Mean Anom(rad): -1.801618866 Af0(s): 0.0003481975342 Af1(s/s): -3.637979e-12 week: 360 ******** Week 360 almanac for PRN-26 ******** ID: 26 Health: 0 Eccentricity: 0.0110039711 Time of Applicability(s): 61440 Orbital Inclination(rad): 0.9282105763 Rate of Right Ascen(r/s): -8.354633718e-09 SQRT(A) (m 1/2): 5153.650879 Right Ascen at Week(rad): 0.8704269885 Argument of Perigee(rad): 0.7092253067 Mean Anom(rad): -2.622468988 Af0(s): -0.0002645396851 Af1(s/s): -7.275958e-12 week: 360 ******** Week 360 almanac for PRN-27 ******** ID: 27 Health: 0 Eccentricity: 0.01435565948 Time of Applicability(s): 61440 Orbital Inclination(rad): 0.9523647816 Rate of Right Ascen(r/s): -8.126052768e-09 SQRT(A) (m 1/2): 5153.605957 Right Ascen at Week(rad): 2.000690324 Argument of Perigee(rad): 0.8811157936 Mean Anom(rad): 1.920216628 Af0(s): -4.371311035e-05 Af1(s/s): -1.091394e-11 week: 360 ******** Week 360 almanac for PRN-28 ******** ID: 28 Health: 0 Eccentricity: 0.0004191398621 Time of Applicability(s): 61440 Orbital Inclination(rad): 0.962347641 Rate of Right Ascen(r/s): -7.623174678e-09 SQRT(A) (m 1/2): 5153.753906 Right Ascen at Week(rad): -0.104518545 Argument of Perigee(rad): 0.02850335543 Mean Anom(rad): -0.7031627869 Af0(s): -0.0004635097046 Af1(s/s): 7.275958e-12 week: 360 ******** Week 360 almanac for PRN-29 ******** ID: 29 Health: 0 Eccentricity: 0.003370761871 Time of Applicability(s): 61440 Orbital Inclination(rad): 0.9616465638 Rate of Right Ascen(r/s): -7.931758961e-09 SQRT(A) (m 1/2): 5153.703613 Right Ascen at Week(rad): 2.090092642 Argument of Perigee(rad): 2.739339524 Mean Anom(rad): 1.787711922 Af0(s): -0.0002901646118 Af1(s/s): 7.275958e-12 week: 360 ******** Week 360 almanac for PRN-30 ******** ID: 30 Health: 0 Eccentricity: 0.008050441742 Time of Applicability(s): 61440 Orbital Inclination(rad): 0.9366594549 Rate of Right Ascen(r/s): -7.863184676e-09 SQRT(A) (m 1/2): 5153.713867 Right Ascen at Week(rad): -0.08775373789 Argument of Perigee(rad): -2.319853453 Mean Anom(rad): -1.17487274 Af0(s): 0.0001085291016 Af1(s/s): 1.455192e-11 week: 360 ******** Week 360 almanac for PRN-31 ******** ID: 31 Health: 0 Eccentricity: 0.01080799103 Time of Applicability(s): 61440 Orbital Inclination(rad): 0.9551690903 Rate of Right Ascen(r/s): -7.691748963e-09 SQRT(A) (m 1/2): 5153.735352 Right Ascen at Week(rad): -0.05456604855 Argument of Perigee(rad): 0.9396737125 Mean Anom(rad): -2.115398831 Af0(s): -0.0001296319824 Af1(s/s): 3.637979e-12 week: 360 ******** Week 360 almanac for PRN-32 ******** ID: 32 Health: 0 Eccentricity: 0.00933599472 Time of Applicability(s): 61440 Orbital Inclination(rad): 0.9676626447 Rate of Right Ascen(r/s): -8.103194673e-09 SQRT(A) (m 1/2): 5153.682129 Right Ascen at Week(rad): -1.134587768 Argument of Perigee(rad): -1.999012907 Mean Anom(rad): 2.497918811 Af0(s): -5.50182251e-05 Af1(s/s): 1.818989e-11 week: 360